Weather reports worldwide

Advertisment
Rovaniemi Rautatieasema, Finland (2847): temperature & dewpoint: 03.12.2019 22:00:00 - 09.12.2019 22:00:00 (EET)Rovaniemi Rautatieasema, Finland (2847): wind speed & gusts: 03.12.2019 22:00:00 - 09.12.2019 22:00:00 (EET)Rovaniemi Rautatieasema, Finland (2847): wind direction: 03.12.2019 22:00:00 - 09.12.2019 22:00:00 (EET)Rovaniemi Rautatieasema, Finland (2847): reduced air pressure: 03.12.2019 22:00:00 - 09.12.2019 22:00:00 (EET)Rovaniemi Rautatieasema, Finland (2847): visibility: 03.12.2019 22:00:00 - 09.12.2019 22:00:00 (EET)
Date & Time tt [°C] td [°C] ff [km/h] ff [kn] fx [km/h] fx [kn] dd ppp [hPa] vv [km]
09.12.2019 22:00:00 -5,5 -6,7 9 5 25 14 NNW 985,6 38
09.12.2019 21:00:00 -5,1 -6,2 10 5 23 12 NNW 984,2 16
09.12.2019 20:00:00 -5,1 -6,0 7 4 20 11 NNW 982,7 6
09.12.2019 19:00:00 -5,5 -6,4 8 4 19 10 NW 981,5 12
09.12.2019 18:00:00 -5,7 -6,6 10 5 24 13 NNW 980,3 4,0
09.12.2019 17:00:00 -5,9 -6,9 9 5 19 11 NNW 979,2 7
09.12.2019 16:00:00 -5,5 -6,5 9 5 22 12 NNW 978,1 6
09.12.2019 15:00:00 -5,5 -6,4 9 5 18 10 NNW 977,1 4,1
09.12.2019 14:00:00 -5,2 -6,3 7 4 18 10 N 976,5 13
09.12.2019 13:00:00 -5,5 -6,7 6 4 24 13 N 975,6 50
09.12.2019 12:00:00 -5,5 -6,7 7 4 26 14 NNE 975,1 50
09.12.2019 11:00:00 -5,3 -6,7 12 7 25 13 NE 974,8 50
09.12.2019 10:00:00 -5,3 -6,4 11 6 25 13 NE 974,7 47
09.12.2019 09:00:00 -5,1 -6,2 13 7 26 14 NE 974,3 48
09.12.2019 08:00:00 -5,3 -6,2 14 7 26 14 NE 974,4 50
09.12.2019 07:00:00 -5,9 -6,7 10 5 27 15 NE 974,7 50
09.12.2019 06:00:00 -6,2 -7,0 11 6 22 12 NE 975,2 50
09.12.2019 05:00:00 -6,5 -7,4 13 7 22 12 NE 975,7 34
09.12.2019 04:00:00 -6,8 -7,6 9 5 18 10 ENE 976,4 46
09.12.2019 03:00:00 -7,0 -7,7 7 4 16 8 ENE 977,3 50
09.12.2019 02:00:00 -7,1 -7,8 5 3 15 8 E 977,8 50
09.12.2019 01:00:00 -7,2 -7,9 6 4 13 7 E 978,2 50
09.12.2019 00:00:00 -7,1 -7,9 6 3 13 7 SE 978,7 50
08.12.2019 23:00:00 -7,0 -7,4 4 2 8 5 SE 979,0 43
08.12.2019 22:00:00 -7,0 -7,6 5 3 15 8 SE 979,3 13
08.12.2019 21:00:00 -6,6 -7,1 8 5 13 7 SSW 979,4 38
08.12.2019 20:00:00 -6,2 -6,5 8 5 15 8 WSW 979,1 8
08.12.2019 19:00:00 -6,3 -6,7 11 6 16 8 WSW 979,1 21
08.12.2019 18:00:00 -6,3 -6,8 8 4 15 8 SW 978,9 8
08.12.2019 17:00:00 -6,0 -6,4 10 6 16 9 WSW 979,0 3,8
08.12.2019 16:00:00 -5,8 -6,1 9 5 21 11 WSW 978,6 3,9
08.12.2019 15:00:00 -5,7 -6,0 11 6 22 12 WSW 978,4 8
08.12.2019 14:00:00 -5,4 -5,6 6 3 11 6 SW 977,9 4,8
08.12.2019 13:00:00 -5,1 -5,4 8 4 16 9 WSW 977,6 3,4
08.12.2019 12:00:00 -4,6 -5,0 10 6 17 9 WSW 977,7 3,4
08.12.2019 11:00:00 -4,3 -4,8 7 4 18 10 SW 977,6 2,4
08.12.2019 10:00:00 -2,9 -3,3 9 5 16 9 WSW 977,2 38
08.12.2019 09:00:00 -1,7 -1,9 3 2 5 3 S 977,2 29
08.12.2019 08:00:00 -1,7 -1,9 4 2 5 3 SE 977,2 10
08.12.2019 07:00:00 -1,7 -1,8 2 1 6 3 SSE 977,2 12
08.12.2019 06:00:00 -1,8 -1,9 4 2 7 4 SSE 977,4 24
08.12.2019 05:00:00 -1,3 -1,4 4 2 6 3 SSE 977,6 13
08.12.2019 04:00:00 -1,2 -1,2 4 2 6 4 SSE 977,9 2,0
08.12.2019 03:00:00 -1,0 -1,1 4 2 6 4 S 978,1 2,1
08.12.2019 02:00:00 -1,0 -1,1 5 3 8 4 S 978,3 1,9
08.12.2019 01:00:00 -0,5 -0,6 6 3 10 6 SSE 978,6 2,2
08.12.2019 00:00:00 -0,4 -0,6 8 4 14 8 S 979,0 4,2
07.12.2019 23:00:00 -0,3 -0,6 9 5 15 8 S 979,3 9
07.12.2019 22:00:00 -0,2 -0,7 9 5 18 10 SSW 979,6 9
07.12.2019 21:00:00 -0,1 -0,5 9 5 21 11 S 979,8 10
07.12.2019 20:00:00 0,0 -0,4 10 5 16 9 SSW 980,4 8
07.12.2019 19:00:00 -0,1 -0,5 11 6 28 15 S 980,8 3,7
07.12.2019 18:00:00 0,1 -0,7 12 6 22 12 SSW 980,8 17
07.12.2019 17:00:00 0,2 -0,9 14 7 25 14 S 980,9 50
07.12.2019 16:00:00 0,2 -0,9 10 5 20 11 SSW 981,2 50
07.12.2019 15:00:00 0,1 -0,9 7 4 21 11 SSW 981,1 50
07.12.2019 14:00:00 0,1 -0,8 9 5 18 10 S 981,5 50
07.12.2019 13:00:00 0,0 -1,1 10 6 26 14 SSW 981,7 50
07.12.2019 12:00:00 0,1 -1,0 10 5 30 16 SW 981,8 47
07.12.2019 11:00:00 0,1 -0,9 13 7 29 16 SSW 982,1 50
07.12.2019 10:00:00 0,1 -1,0 18 10 28 15 SSW 981,9 50
07.12.2019 09:00:00 0,0 -0,8 14 8 25 13 SSW 981,7 50
07.12.2019 08:00:00 -0,2 -1,0 13 7 27 15 SSW 981,5 50
07.12.2019 07:00:00 -0,1 -0,6 9 5 29 15 SSW 981,2 50
07.12.2019 06:00:00 0,0 -0,5 8 4 23 13 S 981,3 26
07.12.2019 05:00:00 -0,1 -0,5 9 5 19 10 S 981,3 49
07.12.2019 04:00:00 -0,3 -0,4 9 5 18 10 S 981,2 10
07.12.2019 03:00:00 -0,6 -1,0 9 5 20 11 SSW 981,4 31
07.12.2019 02:00:00 -1,0 -1,2 9 5 18 10 S 981,2 39
07.12.2019 01:00:00 -2,9 -3,0 4 2 9 5 SSE 981,1 15
07.12.2019 00:00:00 -4,2 -4,5 3 1 7 4 ENE 981,2 9
06.12.2019 23:00:00 -5,6 -5,8 3 2 6 4 ENE 981,3 10
06.12.2019 22:00:00 -6,5 -6,8 4 2 8 5 ENE 981,2 7
06.12.2019 21:00:00 -7,0 -7,2 4 2 7 4 NNE 981,2 1,2
06.12.2019 20:00:00 -9,1 -9,7 4 2 10 5 SE 981,2 14
06.12.2019 19:00:00 -10,0 -10,8 3 2 7 4 ESE 981,0 41
06.12.2019 18:00:00 -10,6 -11,4 3 2 7 4 SSE 980,6 36
06.12.2019 17:00:00 -10,1 -10,9 3 2 5 3 SSE 980,1 36
06.12.2019 16:00:00 -9,3 -9,9 2 1 5 3 SW 979,7 42
06.12.2019 15:00:00 -8,0 -8,4 0 0 5 3 N 979,5 44
06.12.2019 14:00:00 -7,5 -7,9 3 2 6 4 S 979,4 40
06.12.2019 13:00:00 -7,4 -7,8 5 3 10 5 W 979,0 44
06.12.2019 12:00:00 -7,2 -7,4 5 3 10 6 SW 978,5 31
06.12.2019 11:00:00 -7,2 -7,6 8 4 12 7 WSW 978,3 30
06.12.2019 10:00:00 -7,0 -7,4 9 5 15 8 W 978,0 50
06.12.2019 09:00:00 -4,9 -5,1 10 6 16 9 WSW 977,6 36
06.12.2019 08:00:00 -4,6 -4,7 10 5 13 7 W 977,0 44
06.12.2019 07:00:00 -4,7 -5,0 7 4 11 6 WSW 976,4 42
06.12.2019 06:00:00 -3,7 -4,0 6 3 14 8 SW 975,9 50
06.12.2019 05:00:00 -2,6 -3,1 10 5 16 8 SW 975,4 50
06.12.2019 04:00:00 -1,6 -2,0 10 6 21 11 WSW 975,1 50
06.12.2019 03:00:00 -0,7 -1,3 11 6 16 9 WSW 975,0 50
06.12.2019 02:00:00 -0,6 -1,1 4 2 14 8 WSW 974,7 49
06.12.2019 01:00:00 -0,1 -0,8 9 5 19 10 SW 974,6 50
06.12.2019 00:00:00 0,0 -0,6 8 5 20 11 SW 975,0 50
05.12.2019 23:00:00 -0,1 -0,6 10 5 22 12 SW 975,0 50
05.12.2019 22:00:00 0,5 -0,3 16 8 29 15 SW 975,0 50
05.12.2019 21:00:00 1,0 0,1 14 8 26 14 SSW 975,3 50
05.12.2019 20:00:00 0,9 0,2 13 7 25 13 SSW 976,2 50
05.12.2019 19:00:00 0,5 0,0 15 8 25 13 SSW 976,9 50
05.12.2019 18:00:00 0,1 -0,2 10 5 23 13 SSW 977,1 50
05.12.2019 17:00:00 -0,5 -0,8 10 5 17 9 SW 978,2 50
05.12.2019 16:00:00 -0,7 -1,0 11 6 18 10 WSW 979,0 46
05.12.2019 15:00:00 -0,3 -0,5 6 4 14 7 SSW 979,7 45
05.12.2019 14:00:00 -0,2 -0,5 6 3 17 9 SW 980,0 45
05.12.2019 13:00:00 0,5 0,2 9 5 17 9 SW 980,3 50
05.12.2019 12:00:00 0,8 0,4 10 5 18 10 SW 980,9 49
05.12.2019 11:00:00 0,9 0,5 9 5 18 10 SW 981,2 50
05.12.2019 10:00:00 1,5 1,2 14 8 24 13 SW 981,5 37
05.12.2019 09:00:00 1,7 1,5 16 9 31 17 SW 981,5 43
05.12.2019 08:00:00 1,9 1,8 15 8 25 14 SW 981,7 22
05.12.2019 07:00:00 2,0 1,9 18 10 29 16 SW 982,1 18
05.12.2019 06:00:00 2,1 1,9 11 6 25 13 SSW 982,8 8
05.12.2019 05:00:00 1,6 1,5 6 3 12 6 WSW 983,8 3,4
05.12.2019 04:00:00 1,9 1,7 8 4 16 9 SW 985,0 8
05.12.2019 03:00:00 1,8 1,4 10 5 20 11 SW 986,0 48
05.12.2019 02:00:00 1,9 1,4 13 7 21 11 SW 987,2 50
05.12.2019 01:00:00 1,9 1,6 11 6 19 10 SW 987,3 50
05.12.2019 00:00:00 1,7 1,6 6 4 15 8 WSW 987,8 50
04.12.2019 23:00:00 1,6 1,5 9 5 14 7 WSW 988,6 50
04.12.2019 22:00:00 0,7 0,7 8 4 11 6 WSW 988,9 19
04.12.2019 21:00:00 0,8 0,8 5 3 11 6 W 989,2 20
04.12.2019 20:00:00 0,5 0,5 6 3 11 6 WSW 989,5 11
04.12.2019 19:00:00 0,5 0,4 9 5 11 6 WSW 990,0 10
04.12.2019 18:00:00 0,7 0,7 8 4 13 7 W 990,1 24
04.12.2019 17:00:00 0,2 0,2 10 5 17 9 W 989,6 24
04.12.2019 16:00:00 0,1 0,1 10 5 16 9 WSW 988,9 19
04.12.2019 15:00:00 0,3 0,2 9 5 20 11 WSW 989,2 33
04.12.2019 14:00:00 0,1 0,0 7 4 13 7 WSW 988,6 23
04.12.2019 13:00:00 0,2 0,1 11 6 21 11 SW 988,8 31
04.12.2019 12:00:00 -0,1 -0,1 9 5 15 8 WSW 988,1 38
04.12.2019 11:00:00 -0,5 -0,5 4 2 12 6 SW 988,3 10
04.12.2019 10:00:00 -1,2 -1,2 6 3 9 5 W 988,3 6
04.12.2019 09:00:00 -1,7 -1,7 3 2 5 3 SSW 988,0 3,1
04.12.2019 08:00:00 -2,0 -2,0 3 2 9 5 SSE 987,9 1,9
04.12.2019 07:00:00 -2,4 -2,6 5 3 9 5 SE 987,4 2,1
04.12.2019 06:00:00 -2,7 -3,0 5 3 9 5 SE 987,4 6
04.12.2019 05:00:00 -2,8 -3,1 7 4 15 8 ESE 988,1 3,0
04.12.2019 04:00:00 -2,9 -3,2 5 3 10 5 SE 988,7 1,4
04.12.2019 03:00:00 -2,9 -3,2 4 2 8 4 SE 989,0 2,7
04.12.2019 02:00:00 -3,1 -3,4 5 3 13 7 SSE 989,5 2,8
04.12.2019 01:00:00 -3,1 -3,6 8 4 11 6 ESE 990,2 2,5
04.12.2019 00:00:00 -2,7 -3,4 6 3 14 8 SSE 990,7 3,8
03.12.2019 23:00:00 -2,6 -3,4 8 5 14 8 S 991,4 9
03.12.2019 22:00:00 -4,9 -5,5 4 2 8 4 SE 992,2 13

tt = temperature
td = dewpoint
ff = wind speed
fx = gusts
dd = wind direction
ppp = reduced air pressure
vv = visibility

Next stations